Location: Austin
(30.3000°N, 97.7500°W)
Time: 06:28:00
(UTC-06:00)

Cosmos 1452 Rocket - Pass Details

Date: 03 March 2026
Orbit: 763 x 771 km, 74.1° (Epoch: 6 March)

Event Time Altitude Azimuth Distance (km) Brightness Sun altitude
Rises 19:29:27 0° 354° (N) 3,236 6.8 -13.3°
Reaches altitude 10° 19:32:01 10° 3° (N) 2,305 6.0 -13.9°
Maximum altitude 19:36:49 36° 70° (ENE) 1,191 4.0 -14.9°
Enters shadow 19:40:06 18° 127° (SE) 1,798 4.9 -15.6°
